Hourly Data Report for December 15, 2019

EUREKA CLIMATE
NUNAVUT
Current Station Operator: ECCC - MSC

79°59'21.000" N
85°56'02.000" W
10.00 m
2401199
71613
NEK

Download Data

Hourly Data (December 2019)
Hourly Data Report for December 15, 2019
TIME
LST
Temp Definition
°C
Dew Point Definition
°C
Rel Hum Definition
%
Precip. Amount Definition
mm

Wind Dir Definition
10's deg

Wind Spd Definition
km/h
Visibility Definition
km
Stn Press Definition
kPa
Hmdx Definition


Wind Chill Definition


Weather Definition


00:00 -29.3 -32.3 76 0.0 8 3   101.59   -33 LegendNANA
01:00 -30.3 -33.5 74 0.0 4 9   101.60   -39 LegendNANA
02:00 -30.5 -33.6 74 0.0 35 8   101.65   -39 LegendNANA
03:00 -31.7 -34.9 73 0.0 4 1   101.65   -33 LegendNANA
04:00 -30.8 -33.8 75 0.0 9 5   101.68   -37 LegendNANA
05:00 -31.2 -34.2 75 0.0 5 2   101.65   -34 LegendNANA
06:00 -31.4 -34.4 75 0.0 14 4   101.70   -36 LegendNANA
07:00 -32.9 -36.2 72 0.0 3 16   101.72   -45 LegendNANA
08:00 -32.7 -36.0 72 0.0 3 8   101.73   -41 LegendNANA
09:00 -32.7 -36.0 73 0.0 11 14   101.79   -44 LegendNANA
10:00 -32.7 -35.8 74 0.0 3 8   101.80   -41 LegendNANA
11:00 -33.1 -36.4 72 0.0 2 7   101.83   -41 LegendNANA
12:00 -31.7 -34.9 73 0.0 2 9   101.86   -41 LegendNANA
13:00 -31.9 -35.1 73 0.0 10 3   101.90   -35 LegendNANA
14:00 -32.2 -35.5 72 0.0 2 5   101.92   -38 LegendNANA
15:00 -30.8 -33.9 74 0.0 2 1   102.05   -32 LegendNANA
16:00 -31.8 -35.0 74 0.0 7 5   102.11   -38 LegendNANA
17:00 -31.7 -34.8 74 0.0 11 5   102.17   -38 LegendNANA
18:00 -32.3 -35.5 73 0.0 10 11   102.21   -42 LegendNANA
19:00 -32.5 -35.7 73 0.0 9 3   102.27   -36 LegendNANA
20:00 -32.0 -35.2 74 0.0 10 5   102.33   -38 LegendNANA
21:00 -31.4 -34.6 74 0.0 3 7   102.35   -39 LegendNANA
22:00 -31.9 -35.1 73 0.0 36 1   102.36   -33 LegendNANA
23:00 -31.7 -34.9 74 0.0 7 3   102.34   -35 LegendNANA

Notes on Data Quality.

Legend

  • E = Estimated
  • M = Missing
  • NA = Not Available*
  • [empty] = Indicates an unobserved value
Date modified: